GW3736 Weather Reports


time (UTC)temp
F
wind
direction
speed
knots
gust
knots
rain 1hr
in
rain 24hr
in
rain mn
in
humidity
%
barometer
mb
20260508230521 59 150 7.0 11.3 0.00 0.00 0.00 66 1002.9
20260508225517 60 157 7.0 13.9 0.00 0.00 0.00 64 1003.1
20260508224614 60 155 6.1 13.0 0.00 0.00 0.00 61 1003.0
20260508223529 60 112 4.3 12.2 0.00 0.00 0.00 62 1003.0
20260508222525 60 108 2.6 6.1 0.00 0.00 0.00 62 1003.2
20260508221521 60 115 4.3 8.7 0.00 0.00 0.00 63 1003.3
20260508220517 60 112 5.2 9.6 0.00 0.00 0.00 62 1003.3
20260508215533 60 115 6.1 9.6 0.00 0.00 0.00 63 1003.4
20260508214530 60 116 6.1 12.2 0.00 0.00 0.00 63 1003.4
20260508213526 59 118 7.0 12.2 0.00 0.00 0.00 63 1003.6
20260508212521 59 114 6.1 12.2 0.00 0.00 0.00 62 1003.7
20260508211518 59 115 7.8 14.8 0.00 0.00 0.00 62 1003.7
20260508210533 59 120 8.7 13.9 0.00 0.00 0.00 62 1003.7
20260508205549 59 121 8.7 13.9 0.00 0.00 0.00 61 1003.9
20260508204546 59 125 8.7 13.9 0.00 0.00 0.00 60 1004.0
20260508203521 60 119 11.3 19.1 0.00 0.00 0.00 59 1004.3
20260508202517 60 119 9.6 18.2 0.00 0.00 0.00 59 1004.4
20260508201533 60 116 9.6 18.2 0.00 0.00 0.00 58 1004.5
20260508200528 60 121 8.7 15.6 0.00 0.00 0.00 56 1004.7
20260508195524 60 120 9.6 18.2 0.00 0.00 0.00 53 1004.8
20260508194520 60 124 7.8 14.8 0.00 0.00 0.00 51 1005.1
20260508193516 61 121 8.7 15.6 0.00 0.00 0.00 49 1005.3
20260508192532 61 115 8.7 15.6 0.00 0.00 0.00 49 1005.4
20260508191528 61 120 7.8 13.9 0.00 0.00 0.00 50 1005.4
20260508190524 60 120 5.2 13.0 0.00 0.00 0.00 51 1005.6
20260508185520 60 117 5.2 9.6 0.00 0.00 0.00 50 1005.6
20260508184516 59 118 4.3 9.6 0.00 0.00 0.00 50 1005.8
20260508183532 59 116 5.2 11.3 0.00 0.00 0.00 50 1005.8
20260508182528 59 118 6.1 9.6 0.00 0.00 0.00 49 1006.0
20260508181524 59 118 6.1 11.3 0.00 0.00 0.00 49 1006.1
20260508180520 59 117 5.2 13.0 0.00 0.00 0.00 43 1006.3
20260508175516 59 119 5.2 12.2 0.00 0.00 0.00 46 1006.5
20260508174533 59 121 9.6 15.6 0.00 0.00 0.00 51 1006.7
20260508173528 59 116 5.2 12.2 0.00 0.00 0.00 48 1006.9
20260508172525 59 117 7.0 12.2 0.00 0.00 0.00 48 1007.0
20260508171520 59 121 7.8 12.2 0.00 0.00 0.00 49 1007.1
20260508170537 60 119 5.2 8.7 0.00 0.00 0.00 50 1007.2
20260508165532 60 121 7.0 13.9 0.00 0.00 0.00 49 1007.4
20260508164529 59 123 7.0 12.2 0.00 0.00 0.00 51 1007.6
20260508163525 60 129 6.1 13.0 0.00 0.00 0.00 53 1007.7
20260508162520 59 125 6.1 9.6 0.00 0.00 0.00 53 1007.5
20260508161537 59 129 7.0 12.2 0.00 0.00 0.00 52 1007.7
20260508160533 60 127 7.0 9.6 0.00 0.00 0.00 54 1007.8
20260508155529 59 129 5.2 8.7 0.00 0.00 0.00 56 1007.8
20260508154525 59 130 3.5 7.8 0.00 0.00 0.00 56 1007.8
20260508153522 58 134 5.2 8.7 0.00 0.00 0.00 58 1007.7
20260508152517 58 127 5.2 9.6 0.00 0.00 0.00 58 1008.0
20260508151533 58 133 3.5 7.8 0.00 0.00 0.00 60 1007.9
20260508150529 57 132 4.3 7.8 0.00 0.00 0.00 61 1008.0
20260508145525 57 135 5.2 9.6 0.00 0.00 0.00 61 1008.1
20260508144521 56 138 3.5 7.0 0.00 0.00 0.00 62 1008.1
20260508143517 55 135 2.6 7.0 0.00 0.00 0.00 62 1008.3
20260508142533 55 155 3.5 7.8 0.00 0.00 0.00 61 1008.3
20260508141529 54 133 2.6 6.1 0.00 0.00 0.00 62 1008.3
20260508140525 54 139 1.7 5.2 0.00 0.00 0.00 63 1008.5
20260508135521 53 139 2.6 7.8 0.00 0.00 0.00 64 1008.5
20260508134517 53 140 2.6 7.0 0.00 0.00 0.00 64 1008.5
20260508133553 53 136 2.6 6.1 0.00 0.00 0.00 64 1008.3
20260508132529 52 158 3.5 7.0 0.00 0.00 0.00 64 1008.5
20260508131525 51 154 3.5 7.8 0.00 0.00 0.00 64 1008.4
20260508130521 51 154 2.6 5.2 0.00 0.00 0.00 66 1008.3
20260508125517 51 263 3.5 6.1 0.00 0.00 0.00 66 1008.2
20260508124533 51 285 1.7 5.2 0.00 0.00 0.00 67 1008.3
20260508123549 50 281 2.6 5.2 0.00 0.00 0.00 68 1008.3
20260508122525 49 23 2.6 6.1 0.00 0.00 0.00 68 1007.9
20260508121542 49 16 1.7 2.6 0.00 0.00 0.00 69 1007.8
20260508120518 48 329 1.7 2.6 0.00 0.00 0.00 70 1007.8
20260508115533 47 329 0.0 1.7 0.00 0.00 0.00 70 1007.7
20260508114530 47 329 0.0 1.7 0.00 0.00 0.00 72 1007.6
20260508113526 47 329 0.9 1.7 0.00 0.00 0.00 73 1007.5
20260508112522 46 326 0.0 0.9 0.00 0.00 0.00 73 1007.5
20260508111518 46 326 0.0 0.9 0.00 0.00 0.00 74 1007.4
20260508110534 45 0.0 0.0 0.00 0.00 0.00 74 1007.5
20260508105530 44 326 0.0 0.9 0.00 0.00 0.00 74 1007.4
20260508104526 43 0.0 0.0 0.00 0.00 0.00 74 1007.4
20260508103522 43 327 0.9 1.7 0.00 0.00 0.00 73 1007.4
20260508102518 43 325 0.0 0.9 0.00 0.00 0.00 73 1007.4
20260508101534 43 0.0 0.0 0.00 0.00 0.00 73 1007.4
20260508100550 44 325 0.0 0.9 0.00 0.00 0.00 72 1007.4
20260508095546 44 325 0.0 0.9 0.00 0.00 0.00 73 1007.5
20260508094522 44 325 0.0 1.7 0.00 0.00 0.00 73 1007.6
20260508093518 44 324 0.0 0.9 0.00 0.00 0.00 73 1007.6
20260508092533 45 324 0.0 0.9 0.00 0.00 0.00 72 1007.5
20260508091530 45 324 0.0 0.9 0.00 0.00 0.00 71 1007.5
20260508090526 45 325 0.0 0.9 0.00 0.00 0.00 71 1007.5
20260508085522 46 326 0.0 2.6 0.00 0.00 0.00 71 1007.7
20260508084518 46 323 0.0 0.9 0.00 0.00 0.00 71 1007.7
20260508083554 46 323 0.0 0.9 0.00 0.00 0.00 70 1007.6
20260508082550 46 323 0.0 0.9 0.00 0.00 0.00 70 1007.5
20260508081525 46 323 0.0 0.9 0.00 0.00 0.00 70 1007.5
20260508080522 46 323 0.0 0.9 0.00 0.00 0.00 69 1007.6
20260508075538 45 324 0.0 1.7 0.00 0.00 0.00 69 1007.5
20260508074534 46 323 0.0 1.7 0.00 0.00 0.00 69 1007.4
20260508073550 46 322 0.9 2.6 0.00 0.00 0.00 69 1007.4
20260508072526 46 318 0.9 3.5 0.00 0.00 0.00 69 1007.7
20260508071522 46 315 0.9 1.7 0.00 0.00 0.00 69 1007.5
20260508070517 46 319 0.9 3.5 0.00 0.00 0.00 69 1007.5
20260508065533 46 316 0.9 2.6 0.00 0.00 0.00 69 1007.6
20260508064550 46 308 0.9 5.2 0.00 0.00 0.00 70 1007.7
20260508063527 47 301 0.0 1.7 0.00 0.00 0.00 70 1007.7
20260508062522 47 305 0.0 0.9 0.00 0.00 0.00 70 1007.4
20260508061517 47 306 0.9 2.6 0.00 0.00 0.00 71 1007.7
20260508060533 47 305 0.9 1.7 0.00 0.00 0.00 69 1007.8
20260508055529 47 303 0.0 0.9 0.00 0.00 0.00 69 1007.7
20260508054525 47 0.0 0.0 0.00 0.00 0.00 68 1007.8
20260508053522 47 298 0.0 0.9 0.00 0.00 0.00 67 1007.9
20260508052518 48 297 0.9 1.7 0.00 0.00 0.00 67 1008.2
20260508051553 48 298 0.0 1.7 0.00 0.00 0.00 67 1008.2
20260508050529 49 308 0.9 1.7 0.00 0.00 0.00 65 1008.2
20260508045526 49 322 0.0 1.7 0.00 0.00 0.00 64 1008.0
20260508044521 49 0.0 0.0 0.00 0.00 0.00 64 1007.8
20260508043517 49 0.0 0.0 0.00 0.00 0.00 63 1007.9
20260508042533 49 0.0 0.0 0.00 0.00 0.00 63 1007.9
20260508041529 49 0.0 0.0 0.00 0.00 0.00 62 1007.8
20260508040525 49 345 0.9 1.7 0.00 0.00 0.00 61 1007.7
20260508035541 49 344 0.0 0.9 0.00 0.00 0.00 61 1007.7
20260508034516 49 345 0.9 2.6 0.00 0.00 0.00 60 1007.9
20260508033533 49 343 0.9 1.7 0.00 0.00 0.00 59 1008.0
20260508032529 49 343 0.0 1.7 0.00 0.00 0.00 58 1008.1
20260508031524 50 334 0.0 0.9 0.00 0.00 0.00 57 1008.1
20260508030521 50 333 0.0 1.7 0.00 0.00 0.00 56 1008.0
20260508025516 51 329 0.0 1.7 0.00 0.00 0.00 54 1007.9
20260508024532 52 0.0 0.0 0.00 0.00 0.00 48 1007.7
20260508023528 52 307 0.9 2.6 0.00 0.00 0.00 48 1007.8
20260508022524 52 308 0.9 1.7 0.00 0.00 0.00 48 1007.8
20260508021520 52 304 1.7 5.2 0.00 0.00 0.00 47 1008.0
20260508020556 52 313 0.9 1.7 0.00 0.00 0.00 47 1007.8
20260508015532 52 300 2.6 6.1 0.00 0.00 0.00 46 1007.8
20260508014528 52 311 1.7 5.2 0.00 0.00 0.00 45 1007.8
20260508013523 53 310 2.6 6.1 0.00 0.00 0.00 44 1007.6
20260508012519 52 314 1.7 3.5 0.00 0.00 0.00 45 1007.4
20260508011515 52 306 1.7 3.5 0.00 0.00 0.00 45 1007.3
20260508010531 52 327 0.9 2.6 0.00 0.00 0.00 45 1007.0
20260508005547 52 315 0.9 1.7 0.00 0.00 0.00 44 1007.0
20260508004523 53 318 0.9 1.7 0.00 0.00 0.00 43 1007.0
20260508003519 53 315 1.7 3.5 0.00 0.00 0.00 42 1007.0
20260508002554 53 309 1.7 5.2 0.00 0.00 0.00 41 1007.0
20260508001530 54 300 4.3 9.6 0.00 0.00 0.00 42 1006.9
20260508000526 54 294 4.3 8.7 0.00 0.00 0.00 41 1007.0
20260507235522 54 306 5.2 12.2 0.00 0.00 0.00 40 1006.9
20260507234518 54 293 5.2 9.6 0.00 0.00 0.00 41 1006.8
20260507233534 54 293 5.2 9.6 0.00 0.00 0.00 41 1006.7
20260507232529 55 288 6.1 13.0 0.00 0.00 0.00 40 1006.8
20260507231525 55 307 5.2 13.0 0.00 0.00 0.00 39 1006.8